TIANWANG 1A (TW-1A)
1 40928U 15051D   19254.76028191  .00002964  00000-0  73319-4 0  9998
2 40928  97.1408 284.1747 0012425 119.2556 351.9635 15.41157113222276
LAPAN A2
1 40931U 15052B   19253.16999455  .00000714  00000-0  10228-4 0  9997
2 40931   5.9962 181.2998 0013794 258.3587 101.5453 14.76613971213628
LQSAT
1 40958U 15057A   19254.74285948 -.00000010 +00000-0 +60832-5 0  9998
2 40958 097.8921 321.6124 0017406 332.4507 027.5777 14.73088061211338
CHUBUSAT 2
1 41338U 16012B   19254.32720702  .00000294  00000-0  16108-4 0  9998
2 41338  31.0039 326.8939 0013785 221.9853 137.9726 15.00176348195635
CHUBUSAT 3
1 41339U 16012C   19254.61948057  .00000308  00000-0  17136-4 0  9994
2 41339  31.0121 323.0199 0013592 232.8107 127.1291 15.00350420195671
OUFTI-1
1 41458U 16025C   19254.84109580  .00000922  00000-0  50384-4 0  9999
2 41458  98.1012 346.0153 0167412  70.9867 290.9412 15.06005235185384
E-STAR-2
1 41459U 16025D   19254.81160998  .00001132  00000-0  61319-4 0  9991
2 41459  98.0995 345.5971 0168386  72.4338 289.5201 15.05627880185359
AAUSAT 4
1 41460U 16025E   19254.81242531 +.00001505 +00000-0 +78401-4 0  9991
2 41460 098.0970 347.0572 0158184 064.4080 297.3394 15.07583378185498
NUSAT 1
1 41557U 16033B   19254.82464605 +.00000911 +00000-0 +36726-4 0  9990
2 41557 097.4164 341.8296 0013742 004.3568 355.7788 15.27359563183080
BEESAT 4
1 41619U 16040W   19253.86572432  .00001090  00000-0  48828-4 0  9993
2 41619  97.3603 314.4943 0013057  88.5107 271.7626 15.23280772166678
PRATHAM
1 41783U 16059A   19254.74932932  .00000018  00000-0  12641-4 0  9991
2 41783  98.0599 312.4185 0034846 115.7644 244.7161 14.63007887157981
ALSAT 1N
1 41789U 16059G   19254.73372608 +.00000043 +00000-0 +17104-4 0  9991
2 41789 098.0632 314.5851 0029534 104.9746 255.4723 14.64260136158094
NAYIF 1
1 42017U 17008BX  19254.11184903 +.00001140 +00000-0 +47571-4 0  9992
2 42017 097.3966 320.3133 0005065 219.5170 140.5699 15.25695160142799
MAX VALIER SAT
1 42778U 17036P   19254.73082053 +.00000645 +00000-0 +31147-4 0  9999
2 42778 097.3469 310.4923 0010654 288.1416 071.8660 15.22123332123172
